WZZ254A EPKT-EGGW

Flight info

Callsign WZZ254A
Flight time 2h 13m
Altitude 34000
Route OMFOL1M OMFOL T738 DINOV DCT NAROX DCT NOGRO M40 RINIS RINIS1N
Aircraft A21N/M-SDE1E2E3FGIJ1J4RWXY/LB1

Departure

Time 2026-05-04 12:39
Airport Katowice Wojciech Korfanty International Airport (EPKT)

Arrival

Time 2026-05-04 14:52
Airport London Luton Airport (EGGW)
Time Latitude Longitude Altitude Speed Heading
2026-05-04 12:17 50.47186 19.07149 1004 ft 0 kts 180°
2026-05-04 12:29 50.47192 19.07149 1004 ft 4 kts 180°
2026-05-04 12:29 50.47207 19.07149 1004 ft 4 kts 178°
2026-05-04 12:30 50.47228 19.07139 1004 ft 4 kts 126°
2026-05-04 12:30 50.47235 19.07103 1004 ft 3 kts 91°
2026-05-04 12:30 50.47235 19.07089 1004 ft 0 kts 90°
2026-05-04 12:33 50.47235 19.07101 1004 ft 3 kts 90°
2026-05-04 12:33 50.47235 19.07160 1004 ft 8 kts 90°
2026-05-04 12:34 50.47235 19.07266 1004 ft 11 kts 90°
2026-05-04 12:34 50.47235 19.07402 1004 ft 13 kts 90°
2026-05-04 12:34 50.47234 19.07559 1004 ft 15 kts 90°
2026-05-04 12:34 50.47234 19.07731 1004 ft 17 kts 90°
2026-05-04 12:35 50.47233 19.07928 1004 ft 18 kts 90°
2026-05-04 12:35 50.47233 19.08138 1004 ft 20 kts 90°
2026-05-04 12:35 50.47232 19.08364 1004 ft 21 kts 90°
2026-05-04 12:35 50.47232 19.08605 1004 ft 23 kts 90°
2026-05-04 12:36 50.47231 19.08861 1004 ft 24 kts 90°
2026-05-04 12:36 50.47231 19.09132 1004 ft 26 kts 90°
2026-05-04 12:36 50.47230 19.09417 1004 ft 27 kts 90°
2026-05-04 12:36 50.47229 19.09696 1004 ft 21 kts 90°
2026-05-04 12:37 50.47228 19.09929 1004 ft 22 kts 90°
2026-05-04 12:37 50.47296 19.10144 1004 ft 23 kts 52°
2026-05-04 12:37 50.47357 19.10267 1004 ft 14 kts 52°
2026-05-04 12:37 50.47422 19.10399 1004 ft 16 kts 52°
2026-05-04 12:38 50.47530 19.10449 1004 ft 18 kts 356°
2026-05-04 12:38 50.47595 19.10305 1003 ft 19 kts 263°
2026-05-04 12:38 50.47593 19.09967 1002 ft 60 kts 269°
2026-05-04 12:38 50.47596 19.08953 1006 ft 123 kts 269°
2026-05-04 12:39 50.47599 19.07356 1014 ft 165 kts 269°
2026-05-04 12:39 50.47621 19.05598 1609 ft 158 kts 269°
2026-05-04 12:39 50.47660 19.03898 2241 ft 158 kts 269°
2026-05-04 12:39 50.47697 19.02186 2892 ft 156 kts 269°
2026-05-04 12:40 50.47666 19.00382 3354 ft 176 kts 264°
2026-05-04 12:40 50.47629 18.98378 3828 ft 195 kts 267°
2026-05-04 12:40 50.47622 18.96144 4396 ft 214 kts 268°
2026-05-04 12:40 50.47622 18.93701 4850 ft 237 kts 268°
2026-05-04 12:41 50.47603 18.90987 5320 ft 258 kts 267°
2026-05-04 12:41 50.47565 18.88113 6125 ft 266 kts 267°
2026-05-04 12:41 50.47526 18.85189 6992 ft 270 kts 267°
2026-05-04 12:41 50.47486 18.82219 7832 ft 274 kts 266°
2026-05-04 12:42 50.47446 18.79221 8680 ft 277 kts 266°
2026-05-04 12:42 50.47406 18.76179 9508 ft 280 kts 266°
2026-05-04 12:42 50.47363 18.73096 10243 ft 288 kts 266°
2026-05-04 12:42 50.47317 18.69857 10660 ft 306 kts 266°
2026-05-04 12:43 50.47267 18.66441 11169 ft 318 kts 266°
2026-05-04 12:43 50.47217 18.62936 11920 ft 323 kts 266°
2026-05-04 12:43 50.47162 18.59398 12715 ft 325 kts 266°
2026-05-04 12:43 50.47105 18.55836 13509 ft 328 kts 266°
2026-05-04 12:44 50.47022 18.52244 14289 ft 331 kts 265°
2026-05-04 12:44 50.46930 18.48617 15032 ft 334 kts 265°
2026-05-04 12:44 50.46838 18.44964 15749 ft 337 kts 266°
2026-05-04 12:44 50.46745 18.41275 16465 ft 340 kts 266°
2026-05-04 12:45 50.46649 18.37551 17157 ft 343 kts 266°
2026-05-04 12:45 50.46551 18.33795 17844 ft 346 kts 266°
2026-05-04 12:45 50.46453 18.30015 18501 ft 348 kts 266°
2026-05-04 12:45 50.46352 18.26197 19131 ft 352 kts 266°
2026-05-04 12:46 50.46250 18.22335 19740 ft 356 kts 266°
2026-05-04 12:46 50.46149 18.18434 20338 ft 359 kts 266°
2026-05-04 12:46 50.46044 18.14502 20905 ft 363 kts 266°
2026-05-04 12:46 50.45934 18.10520 21457 ft 367 kts 266°
2026-05-04 12:47 50.45821 18.06495 21996 ft 371 kts 266°
2026-05-04 12:47 50.45706 18.02429 22529 ft 374 kts 266°
2026-05-04 12:47 50.45590 17.98334 23042 ft 378 kts 266°
2026-05-04 12:47 50.45470 17.94197 23528 ft 381 kts 266°
2026-05-04 12:48 50.45348 17.90027 24010 ft 385 kts 266°
2026-05-04 12:48 50.45235 17.85821 24484 ft 388 kts 268°
2026-05-04 12:48 50.45449 17.81591 24941 ft 392 kts 281°
2026-05-04 12:48 50.46304 17.77515 25385 ft 396 kts 292°
2026-05-04 12:49 50.47445 17.73567 25830 ft 399 kts 293°
2026-05-04 12:49 50.48604 17.69658 26290 ft 401 kts 293°
2026-05-04 12:49 50.49778 17.65664 26730 ft 403 kts 293°
2026-05-04 12:49 50.50945 17.61651 27148 ft 405 kts 293°
2026-05-04 12:50 50.52107 17.57599 27538 ft 407 kts 293°
2026-05-04 12:50 50.53273 17.53530 27935 ft 410 kts 293°
2026-05-04 12:50 50.54444 17.49437 28314 ft 411 kts 292°
2026-05-04 12:50 50.55614 17.45324 28669 ft 413 kts 293°
2026-05-04 12:51 50.56791 17.41188 29022 ft 415 kts 292°
2026-05-04 12:51 50.57970 17.37032 29378 ft 417 kts 292°
2026-05-04 12:51 50.59152 17.32864 29725 ft 418 kts 292°
2026-05-04 12:51 50.60341 17.28674 30054 ft 420 kts 292°
2026-05-04 12:52 50.61534 17.24472 30375 ft 421 kts 292°
2026-05-04 12:52 50.62725 17.20245 30672 ft 423 kts 292°
2026-05-04 12:52 50.63916 17.15997 30961 ft 425 kts 292°
2026-05-04 12:52 50.65112 17.11738 31299 ft 424 kts 292°
2026-05-04 12:53 50.66303 17.07490 31681 ft 423 kts 292°
2026-05-04 12:53 50.67492 17.03252 32041 ft 422 kts 292°
2026-05-04 12:53 50.68677 16.99018 32389 ft 421 kts 292°
2026-05-04 12:53 50.69854 16.94801 32749 ft 420 kts 292°
2026-05-04 12:54 50.71016 16.90586 33088 ft 418 kts 291°
2026-05-04 12:54 50.72152 16.86375 33394 ft 417 kts 291°
2026-05-04 12:54 50.73287 16.82165 33716 ft 416 kts 291°
2026-05-04 12:54 50.74416 16.77972 33957 ft 416 kts 291°
2026-05-04 12:55 50.75552 16.73766 33998 ft 416 kts 291°
2026-05-04 12:55 50.77817 16.65363 33981 ft 415 kts 291°
2026-05-04 12:56 50.80064 16.56966 33972 ft 415 kts 291°
2026-05-04 12:56 50.82306 16.48557 33970 ft 415 kts 291°
2026-05-04 12:57 50.84541 16.40150 33968 ft 414 kts 291°
2026-05-04 12:57 50.86765 16.31742 33971 ft 414 kts 291°
2026-05-04 12:58 50.88985 16.23328 33974 ft 414 kts 291°
2026-05-04 12:58 50.91197 16.14911 33972 ft 414 kts 290°
2026-05-04 12:59 50.93401 16.06497 33969 ft 413 kts 290°
2026-05-04 12:59 50.95596 15.98078 33970 ft 412 kts 290°
2026-05-04 13:00 50.97774 15.89685 33976 ft 410 kts 290°
2026-05-04 13:00 50.99943 15.81313 33989 ft 409 kts 290°
2026-05-04 13:01 51.02098 15.72953 34001 ft 409 kts 290°
2026-05-04 13:01 51.04233 15.64636 34003 ft 410 kts 290°
2026-05-04 13:02 51.06377 15.56258 34010 ft 409 kts 289°
2026-05-04 13:02 51.08513 15.47877 34002 ft 409 kts 289°
2026-05-04 13:03 51.10643 15.39494 34003 ft 408 kts 289°
2026-05-04 13:03 51.12762 15.31121 34000 ft 408 kts 289°
2026-05-04 13:04 51.14872 15.22740 33992 ft 408 kts 289°
2026-05-04 13:04 51.16980 15.14354 33986 ft 407 kts 289°
2026-05-04 13:05 51.19078 15.05966 33983 ft 408 kts 289°
2026-05-04 13:05 51.20754 14.97397 33999 ft 404 kts 279°
2026-05-04 13:06 51.21763 14.88596 34001 ft 403 kts 278°
2026-05-04 13:06 51.22764 14.79800 33995 ft 403 kts 278°
2026-05-04 13:07 51.23768 14.71003 33992 ft 403 kts 278°
2026-05-04 13:07 51.24763 14.62213 33990 ft 402 kts 278°
2026-05-04 13:08 51.25751 14.53426 34004 ft 402 kts 278°
2026-05-04 13:08 51.26732 14.44652 34008 ft 401 kts 278°
2026-05-04 13:09 51.27710 14.35875 34009 ft 401 kts 278°
2026-05-04 13:09 51.28679 14.27098 34007 ft 401 kts 277°
2026-05-04 13:10 51.29638 14.18333 34014 ft 400 kts 277°
2026-05-04 13:10 51.30590 14.09574 34024 ft 400 kts 277°
2026-05-04 13:11 51.31535 14.00818 34027 ft 399 kts 277°
2026-05-04 13:11 51.32470 13.92071 34014 ft 399 kts 277°
2026-05-04 13:12 51.33400 13.83336 34022 ft 398 kts 277°
2026-05-04 13:12 51.34321 13.74597 34032 ft 398 kts 277°
2026-05-04 13:13 51.35237 13.65853 34023 ft 398 kts 277°
2026-05-04 13:13 51.36147 13.57107 34017 ft 399 kts 277°
2026-05-04 13:14 51.37046 13.48354 34013 ft 399 kts 277°
2026-05-04 13:14 51.37944 13.39602 34001 ft 399 kts 277°
2026-05-04 13:15 51.38834 13.30843 34000 ft 399 kts 276°
2026-05-04 13:15 51.39719 13.22079 34006 ft 399 kts 276°
2026-05-04 13:16 51.40597 13.13303 34001 ft 399 kts 276°
2026-05-04 13:16 51.41322 13.06008 33999 ft 399 kts 276°
2026-05-04 13:17 51.42187 12.97226 34001 ft 399 kts 276°
2026-05-04 13:17 51.43047 12.88439 34008 ft 399 kts 276°
2026-05-04 13:18 51.43902 12.79654 34010 ft 398 kts 276°
2026-05-04 13:18 51.44743 12.70880 34013 ft 398 kts 276°
2026-05-04 13:19 51.45583 12.62094 34012 ft 399 kts 276°
2026-05-04 13:19 51.46417 12.53296 34000 ft 399 kts 275°
2026-05-04 13:20 51.47233 12.44565 33991 ft 399 kts 275°
2026-05-04 13:20 51.48054 12.35772 33989 ft 399 kts 275°
2026-05-04 13:21 51.48867 12.26977 33989 ft 398 kts 275°
2026-05-04 13:21 51.49671 12.18196 33990 ft 398 kts 275°
2026-05-04 13:22 51.50469 12.09409 33993 ft 398 kts 275°
2026-05-04 13:22 51.51260 12.00608 33992 ft 398 kts 275°
2026-05-04 13:23 51.52044 11.91812 33990 ft 398 kts 275°
2026-05-04 13:23 51.52820 11.83026 33988 ft 398 kts 275°
2026-05-04 13:24 51.53594 11.74228 33990 ft 398 kts 275°
2026-05-04 13:24 51.54357 11.65437 33991 ft 398 kts 274°
2026-05-04 13:25 51.55486 11.52304 33992 ft 398 kts 274°
2026-05-04 13:25 51.56238 11.43417 33990 ft 398 kts 274°
2026-05-04 13:26 51.56984 11.34606 33990 ft 398 kts 274°
2026-05-04 13:26 51.57720 11.25784 33989 ft 398 kts 274°
2026-05-04 13:27 51.58448 11.16962 33990 ft 398 kts 274°
2026-05-04 13:27 51.59165 11.08192 33989 ft 398 kts 274°
2026-05-04 13:28 51.59883 10.99350 33989 ft 398 kts 274°
2026-05-04 13:28 51.60590 10.90531 33991 ft 398 kts 274°
2026-05-04 13:29 51.61290 10.81702 33992 ft 398 kts 274°
2026-05-04 13:29 51.61989 10.72874 33986 ft 397 kts 273°
2026-05-04 13:30 51.62678 10.64057 33984 ft 397 kts 273°
2026-05-04 13:30 51.63359 10.55235 33977 ft 397 kts 273°
2026-05-04 13:31 51.64027 10.46429 33977 ft 396 kts 273°
2026-05-04 13:31 51.64694 10.37622 33972 ft 396 kts 273°
2026-05-04 13:32 51.65354 10.28836 33970 ft 396 kts 272°
2026-05-04 13:32 51.66007 10.20038 33973 ft 395 kts 272°
2026-05-04 13:33 51.66651 10.11255 33977 ft 395 kts 272°
2026-05-04 13:33 51.67287 10.02472 33977 ft 394 kts 272°
2026-05-04 13:34 51.67916 9.93753 33974 ft 395 kts 272°
2026-05-04 13:34 51.68541 9.84972 33973 ft 394 kts 272°
2026-05-04 13:35 51.69462 9.71787 33972 ft 395 kts 272°
2026-05-04 13:36 51.70072 9.62994 33973 ft 395 kts 272°
2026-05-04 13:36 51.70673 9.54194 33969 ft 395 kts 272°
2026-05-04 13:37 51.71268 9.45382 33969 ft 396 kts 272°
2026-05-04 13:37 51.71860 9.36553 33969 ft 396 kts 272°
2026-05-04 13:38 51.72444 9.27723 33960 ft 396 kts 272°
2026-05-04 13:38 51.73022 9.18882 33966 ft 396 kts 272°
2026-05-04 13:39 51.73589 9.10046 33964 ft 396 kts 271°
2026-05-04 13:39 51.74145 9.01197 33969 ft 396 kts 271°
2026-05-04 13:40 51.74692 8.92346 33974 ft 396 kts 271°
2026-05-04 13:40 51.75240 8.83524 33977 ft 394 kts 271°
2026-05-04 13:41 51.75783 8.74731 33973 ft 394 kts 271°
2026-05-04 13:41 51.76328 8.65928 33974 ft 394 kts 271°
2026-05-04 13:42 51.77123 8.52775 33973 ft 391 kts 271°
2026-05-04 13:42 51.77635 8.44063 33977 ft 390 kts 271°
2026-05-04 13:43 51.78139 8.35362 33972 ft 388 kts 271°
2026-05-04 13:43 51.78635 8.26727 33976 ft 385 kts 271°
2026-05-04 13:44 51.79123 8.18068 33980 ft 391 kts 271°
2026-05-04 13:44 51.79613 8.09296 33981 ft 392 kts 270°
2026-05-04 13:45 51.80098 8.00521 33978 ft 392 kts 270°
2026-05-04 13:45 51.80574 7.91739 33975 ft 392 kts 270°
2026-05-04 13:46 51.81044 7.82953 33973 ft 392 kts 270°
2026-05-04 13:46 51.81508 7.74237 33976 ft 391 kts 270°
2026-05-04 13:47 51.81963 7.65459 33974 ft 392 kts 270°
2026-05-04 13:47 51.82412 7.56673 33970 ft 392 kts 270°
2026-05-04 13:48 51.82857 7.47926 33973 ft 386 kts 270°
2026-05-04 13:48 51.83288 7.39263 33973 ft 391 kts 270°
2026-05-04 13:49 51.83716 7.30474 33980 ft 392 kts 270°
2026-05-04 13:49 51.84143 7.21684 33988 ft 392 kts 270°
2026-05-04 13:50 51.84562 7.12902 33987 ft 392 kts 270°
2026-05-04 13:50 51.84975 7.04110 33983 ft 392 kts 270°
2026-05-04 13:51 51.85377 6.95353 33996 ft 390 kts 270°
2026-05-04 13:51 51.85773 6.86630 33999 ft 388 kts 269°
2026-05-04 13:52 51.86348 6.73608 33992 ft 386 kts 269°
2026-05-04 13:53 51.86726 6.64969 33981 ft 383 kts 269°
2026-05-04 13:53 51.87089 6.56385 33984 ft 386 kts 269°
2026-05-04 13:54 51.87623 6.43357 33985 ft 387 kts 269°
2026-05-04 13:55 51.88151 6.30345 33982 ft 386 kts 269°
2026-05-04 13:55 51.88666 6.17375 33982 ft 382 kts 269°
2026-05-04 13:56 51.88997 6.08875 33975 ft 380 kts 269°
2026-05-04 13:57 51.89479 5.96008 33975 ft 384 kts 269°
2026-05-04 13:58 51.90106 5.78740 33988 ft 384 kts 269°
2026-05-04 13:58 51.90564 5.65784 33991 ft 385 kts 269°
2026-05-04 13:59 51.90860 5.57142 33994 ft 384 kts 268°
2026-05-04 14:00 51.91299 5.44145 34006 ft 386 kts 268°
2026-05-04 14:00 51.91718 5.31109 33997 ft 387 kts 268°
2026-05-04 14:01 51.91991 5.22389 34005 ft 388 kts 268°
2026-05-04 14:02 51.92395 5.09274 34021 ft 389 kts 268°
2026-05-04 14:02 51.92649 5.00519 34048 ft 389 kts 268°
2026-05-04 14:03 51.92901 4.91754 34013 ft 390 kts 268°
2026-05-04 14:03 51.93148 4.82948 34007 ft 392 kts 268°
2026-05-04 14:04 51.93503 4.69713 34002 ft 393 kts 268°
2026-05-04 14:04 51.93725 4.60865 33996 ft 394 kts 268°
2026-05-04 14:05 51.94022 4.49066 33992 ft 393 kts 268°
2026-05-04 14:06 51.94239 4.40207 33995 ft 393 kts 268°
2026-05-04 14:06 51.94448 4.31344 33972 ft 394 kts 268°
2026-05-04 14:07 51.94648 4.22487 33971 ft 393 kts 268°
2026-05-04 14:07 51.94844 4.13645 33978 ft 391 kts 268°
2026-05-04 14:08 51.95037 4.04911 33985 ft 389 kts 268°
2026-05-04 14:08 51.95225 3.96073 34000 ft 394 kts 268°
2026-05-04 14:09 51.95494 3.82765 34014 ft 394 kts 267°
2026-05-04 14:10 51.95737 3.69525 34023 ft 394 kts 267°
2026-05-04 14:10 51.95895 3.60647 34026 ft 393 kts 267°
2026-05-04 14:11 51.96039 3.51809 34032 ft 390 kts 267°
2026-05-04 14:11 51.96248 3.38595 34023 ft 395 kts 267°
2026-05-04 14:12 51.96381 3.29821 33722 ft 379 kts 266°
2026-05-04 14:12 51.96501 3.21405 32645 ft 370 kts 266°
2026-05-04 14:13 51.96523 3.17260 32047 ft 365 kts 263°
2026-05-04 14:13 51.96321 3.13187 31456 ft 360 kts 259°
2026-05-04 14:13 51.96059 3.09164 30877 ft 358 kts 258°
2026-05-04 14:13 51.95794 3.05166 30293 ft 355 kts 258°
2026-05-04 14:14 51.95532 3.01198 29716 ft 353 kts 258°
2026-05-04 14:14 51.95010 2.93327 28567 ft 349 kts 259°
2026-05-04 14:14 51.94751 2.89426 28011 ft 347 kts 259°
2026-05-04 14:15 51.94239 2.81712 26925 ft 342 kts 259°
2026-05-04 14:15 51.93729 2.74103 25871 ft 337 kts 259°
2026-05-04 14:16 51.93221 2.66621 24839 ft 331 kts 260°
2026-05-04 14:16 51.92968 2.62932 24341 ft 328 kts 260°
2026-05-04 14:17 51.92470 2.55641 23323 ft 323 kts 260°
2026-05-04 14:17 51.92222 2.52035 22798 ft 321 kts 260°
2026-05-04 14:17 51.91722 2.44936 21739 ft 318 kts 261°
2026-05-04 14:18 51.91468 2.41329 21202 ft 317 kts 261°
2026-05-04 14:18 51.90968 2.34271 20167 ft 314 kts 261°
2026-05-04 14:19 51.90699 2.27231 19124 ft 312 kts 266°
2026-05-04 14:19 51.90626 2.23777 18622 ft 311 kts 266°
2026-05-04 14:19 51.90550 2.20290 18112 ft 309 kts 266°
2026-05-04 14:19 51.90471 2.16822 17592 ft 308 kts 266°
2026-05-04 14:20 51.90391 2.13371 17096 ft 306 kts 266°
2026-05-04 14:20 51.90309 2.09946 16597 ft 304 kts 266°
2026-05-04 14:20 51.90227 2.06533 16104 ft 302 kts 266°
2026-05-04 14:21 51.90061 1.99782 15151 ft 298 kts 266°
2026-05-04 14:21 51.89978 1.96445 14675 ft 296 kts 266°
2026-05-04 14:21 51.89895 1.93131 14207 ft 294 kts 266°
2026-05-04 14:21 51.89987 1.89835 13719 ft 294 kts 279°
2026-05-04 14:22 51.90696 1.86746 13222 ft 295 kts 299°
2026-05-04 14:22 51.91937 1.84104 12737 ft 295 kts 308°
2026-05-04 14:22 51.93278 1.81605 12280 ft 293 kts 309°
2026-05-04 14:22 51.94608 1.79116 11815 ft 291 kts 308°
2026-05-04 14:23 51.97209 1.74156 10908 ft 287 kts 308°
2026-05-04 14:23 51.98487 1.71694 10456 ft 285 kts 308°
2026-05-04 14:23 51.99758 1.69236 9990 ft 284 kts 309°
2026-05-04 14:24 52.01023 1.66784 9534 ft 282 kts 309°
2026-05-04 14:24 52.02277 1.64343 9083 ft 281 kts 309°
2026-05-04 14:24 52.03525 1.61919 8645 ft 279 kts 309°
2026-05-04 14:24 52.04764 1.59507 8209 ft 277 kts 309°
2026-05-04 14:25 52.05995 1.57111 7767 ft 276 kts 309°
2026-05-04 14:25 52.08444 1.52332 7263 ft 275 kts 309°
2026-05-04 14:25 52.09664 1.49944 7181 ft 274 kts 309°
2026-05-04 14:26 52.10881 1.47562 7114 ft 274 kts 309°
2026-05-04 14:26 52.12103 1.45171 7058 ft 275 kts 309°
2026-05-04 14:26 52.13321 1.42781 6996 ft 274 kts 309°
2026-05-04 14:26 52.14538 1.40389 6947 ft 274 kts 309°
2026-05-04 14:27 52.15713 1.37945 6896 ft 274 kts 303°
2026-05-04 14:27 52.16439 1.35098 6831 ft 274 kts 282°
2026-05-04 14:27 52.16711 1.32032 6768 ft 273 kts 277°
2026-05-04 14:27 52.16927 1.28957 6712 ft 273 kts 277°
2026-05-04 14:28 52.17148 1.25890 6661 ft 273 kts 277°
2026-05-04 14:28 52.17378 1.22817 6601 ft 273 kts 277°
2026-05-04 14:28 52.17612 1.19756 6528 ft 272 kts 277°
2026-05-04 14:28 52.17848 1.16694 6460 ft 272 kts 277°
2026-05-04 14:29 52.18321 1.10587 6336 ft 271 kts 277°
2026-05-04 14:29 52.18791 1.04515 6218 ft 272 kts 277°
2026-05-04 14:30 52.19027 1.01460 6154 ft 272 kts 277°
2026-05-04 14:30 52.19261 0.98410 6085 ft 271 kts 277°
2026-05-04 14:30 52.19729 0.92316 5971 ft 271 kts 277°
2026-05-04 14:31 52.19960 0.89271 5907 ft 270 kts 277°
2026-05-04 14:31 52.20421 0.83194 5755 ft 270 kts 277°
2026-05-04 14:32 52.20877 0.77130 5603 ft 269 kts 277°
2026-05-04 14:32 52.21103 0.74102 5519 ft 269 kts 277°
2026-05-04 14:32 52.21328 0.71073 5433 ft 269 kts 277°
2026-05-04 14:32 52.21551 0.68051 5351 ft 269 kts 277°
2026-05-04 14:33 52.21773 0.65020 5270 ft 269 kts 277°
2026-05-04 14:33 52.21997 0.61996 5168 ft 269 kts 277°
2026-05-04 14:33 52.22218 0.58973 5053 ft 268 kts 277°
2026-05-04 14:33 52.22437 0.55961 4946 ft 268 kts 277°
2026-05-04 14:34 52.22655 0.52944 4829 ft 267 kts 277°
2026-05-04 14:34 52.22873 0.49942 4709 ft 266 kts 277°
2026-05-04 14:34 52.23090 0.46935 4590 ft 267 kts 277°
2026-05-04 14:34 52.23309 0.43937 4469 ft 266 kts 277°
2026-05-04 14:35 52.23526 0.40944 4346 ft 265 kts 277°
2026-05-04 14:35 52.23743 0.37953 4227 ft 265 kts 277°
2026-05-04 14:35 52.23953 0.34965 4104 ft 264 kts 277°
2026-05-04 14:35 52.24166 0.31990 3986 ft 264 kts 277°
2026-05-04 14:36 52.24376 0.29010 3871 ft 264 kts 277°
2026-05-04 14:36 52.24499 0.26032 3746 ft 264 kts 265°
2026-05-04 14:36 52.23950 0.23192 3623 ft 265 kts 242°
2026-05-04 14:36 52.22965 0.20650 3516 ft 265 kts 237°
2026-05-04 14:37 52.21941 0.18161 3396 ft 264 kts 237°
2026-05-04 14:37 52.20925 0.15660 3285 ft 264 kts 237°
2026-05-04 14:37 52.19921 0.13153 3185 ft 264 kts 238°
2026-05-04 14:37 52.18922 0.10643 3781 ft 265 kts 238°
2026-05-04 14:38 52.17918 0.08116 4478 ft 267 kts 237°
2026-05-04 14:38 52.16908 0.05571 4835 ft 268 kts 237°
2026-05-04 14:38 52.15894 0.03011 4957 ft 269 kts 237°
2026-05-04 14:38 52.14893 0.00490 4998 ft 269 kts 237°
2026-05-04 14:39 52.13881 -0.02065 5002 ft 268 kts 237°
2026-05-04 14:39 52.12857 -0.04657 4999 ft 269 kts 237°
2026-05-04 14:39 52.11847 -0.07205 5000 ft 268 kts 237°
2026-05-04 14:40 52.09817 -0.12309 5006 ft 269 kts 237°
2026-05-04 14:40 52.08802 -0.14861 4999 ft 269 kts 237°
2026-05-04 14:40 52.07786 -0.17412 4999 ft 269 kts 237°
2026-05-04 14:40 52.06771 -0.19957 4999 ft 268 kts 237°
2026-05-04 14:41 52.05766 -0.22477 5000 ft 268 kts 237°
2026-05-04 14:41 52.04761 -0.24989 5004 ft 268 kts 237°
2026-05-04 14:41 52.02726 -0.30076 5009 ft 268 kts 237°
2026-05-04 14:42 52.00673 -0.35186 5005 ft 269 kts 237°
2026-05-04 14:42 51.99653 -0.37724 5004 ft 268 kts 237°
2026-05-04 14:42 51.98630 -0.40273 5003 ft 270 kts 237°
2026-05-04 14:43 51.97606 -0.42822 5000 ft 270 kts 237°
2026-05-04 14:43 51.96592 -0.45342 4997 ft 270 kts 237°
2026-05-04 14:43 51.95566 -0.47888 4998 ft 270 kts 237°
2026-05-04 14:43 51.94537 -0.50434 4997 ft 270 kts 237°
2026-05-04 14:44 51.93511 -0.52974 4999 ft 270 kts 237°
2026-05-04 14:44 51.92481 -0.55519 4998 ft 270 kts 237°
2026-05-04 14:44 51.91453 -0.58059 4999 ft 270 kts 237°
2026-05-04 14:44 51.90431 -0.60608 4997 ft 270 kts 239°
2026-05-04 14:45 51.89704 -0.63394 4994 ft 270 kts 253°
2026-05-04 14:45 51.89197 -0.66318 4995 ft 270 kts 255°
2026-05-04 14:45 51.88701 -0.69238 4997 ft 269 kts 255°
2026-05-04 14:45 51.88197 -0.72159 4998 ft 270 kts 254°
2026-05-04 14:46 51.87395 -0.74823 4977 ft 257 kts 228°
2026-05-04 14:46 51.85970 -0.76305 4922 ft 238 kts 194°
2026-05-04 14:46 51.84372 -0.76233 4649 ft 230 kts 158°
2026-05-04 14:46 51.82975 -0.75015 4355 ft 229 kts 142°
2026-05-04 14:47 51.81908 -0.73144 4106 ft 226 kts 118°
2026-05-04 14:47 51.81508 -0.70739 3875 ft 223 kts 86°
2026-05-04 14:47 51.81790 -0.68333 3685 ft 213 kts 72°
2026-05-04 14:47 51.82261 -0.66136 3507 ft 202 kts 69°
2026-05-04 14:48 51.82710 -0.64061 3337 ft 187 kts 70°
2026-05-04 14:48 51.83079 -0.62135 3235 ft 172 kts 72°
2026-05-04 14:48 51.83395 -0.60351 3113 ft 156 kts 72°
2026-05-04 14:48 51.83683 -0.58698 3028 ft 152 kts 72°
2026-05-04 14:49 51.83968 -0.57054 2868 ft 152 kts 72°
2026-05-04 14:49 51.84252 -0.55415 2674 ft 151 kts 72°
2026-05-04 14:49 51.84530 -0.53804 2483 ft 139 kts 72°
2026-05-04 14:49 51.84781 -0.52355 2295 ft 132 kts 72°
2026-05-04 14:50 51.85029 -0.50929 2112 ft 132 kts 72°
2026-05-04 14:50 51.85275 -0.49503 1943 ft 131 kts 72°
2026-05-04 14:50 51.85521 -0.48080 1772 ft 131 kts 72°
2026-05-04 14:50 51.85767 -0.46660 1595 ft 131 kts 72°
2026-05-04 14:51 51.86012 -0.45243 1424 ft 130 kts 72°
2026-05-04 14:51 51.86255 -0.43838 1259 ft 130 kts 72°
2026-05-04 14:51 51.86498 -0.42428 1076 ft 130 kts 72°
2026-05-04 14:51 51.86742 -0.41018 903 ft 130 kts 72°
2026-05-04 14:52 51.86904 -0.40087 784 ft 130 kts 72°
2026-05-04 14:52 51.87146 -0.38676 586 ft 130 kts 73°
2026-05-04 14:52 51.87381 -0.37353 527 ft 106 kts 74°
2026-05-04 14:52 51.87527 -0.36518 529 ft 48 kts 77°
2026-05-04 14:53 51.87586 -0.36160 523 ft 30 kts 73°
2026-05-04 14:53 51.87626 -0.35949 521 ft 9 kts 70°
2026-05-04 14:53 51.87674 -0.35923 522 ft 17 kts 346°
2026-05-04 14:53 51.87781 -0.36017 522 ft 20 kts 283°
2026-05-04 14:54 51.87763 -0.36185 524 ft 12 kts 252°
2026-05-04 14:54 51.87734 -0.36331 524 ft 15 kts 252°
2026-05-04 14:54 51.87707 -0.36511 525 ft 17 kts 257°
2026-05-04 14:54 51.87685 -0.36662 527 ft 0 kts 253°
2026-05-04 14:55 51.87682 -0.36676 527 ft 1 kts 253°
2026-05-04 14:55 51.87679 -0.36692 527 ft 1 kts 253°
2026-05-04 14:55 51.87674 -0.36721 528 ft 5 kts 253°
2026-05-04 14:55 51.87668 -0.36753 528 ft 3 kts 253°
2026-05-04 14:56 51.87657 -0.36817 530 ft 8 kts 253°
2026-05-04 14:56 51.87652 -0.36927 530 ft 12 kts 309°
2026-05-04 14:56 51.87732 -0.36982 525 ft 13 kts 343°
2026-05-04 14:56 51.87818 -0.37027 519 ft 14 kts 341°
2026-05-04 14:57 51.87912 -0.37076 514 ft 15 kts 342°
2026-05-04 14:57 51.88018 -0.37133 514 ft 15 kts 329°
2026-05-04 14:57 51.88024 -0.37296 514 ft 14 kts 251°
2026-05-04 14:57 51.87990 -0.37341 514 ft 4 kts 148°
2026-05-04 14:58 51.87980 -0.37335 514 ft 3 kts 164°
2026-05-04 14:58 51.87961 -0.37326 514 ft 1 kts 162°
2026-05-04 14:58 51.87958 -0.37324 514 ft 0 kts 162°